NOAA 16 DEB, 41069

Orbit data source: Space-Track

NOAA 16 DEB, 41069 is space debris in SSO originally from a launch on Thu, 21 Sep 2000 UTC launched from the Air Force Western Test Range (AFWTR). Debris objects in space refer to the collection of defunct objects orbiting the Earth. Examples of debris include non-operational satellites, rocket bodies, and fragments generated from explosions, collisions, or faulty payload assembly.

Loading next visibility...
Identifier
41069, 2000-055AC
Orbit
SSO
Country
Flag of USUS
Related business
Manufacturer
Unknown
Mission
Spacecraft
Bus & Motor
Unknown
Mass
Unknown
Launch date (UTC)
2000-09-21 (25 years ago)
Launch vehicle
Unknown
Launch site
Air Force Western Test Range (AFWTR)
Object type
Payload
Rocket body
Debris
Shape & HBR
Unknown shape, 0.1 m
Radar Cross Section
Small (<0.1 m²)

Expand to show TLE details & history
Last TLE update: 9 hours ago

TLE from 9 hours ago
0 NOAA 16 DEB
1 41069U 00055AC  26037.23877998  .00004192  00000-0  11895-2 0  9993
2 41069  98.5907 148.9534 0108960 210.8318 148.6443 14.42554058533741
Epoch: 2026-02-06T05:43Z
TLE epoch observation values (Epoch: 2026-02-06T05:43:50.590Z)
Latitude
0.00001°
Longitude
-73.38691°
Altitude
819.587 km
Speed
7.409 km/s
True Right ascension
09h 55m 48s
True Declination
0° 00' 00"
Sunlit
Object was in full shadow at epoch
Visualization orbit readout
Latitude
Unknown
Longitude
Unknown
Altitude
Unknown
Speed
Unknown
Apparent Right ascension
Unknown
Apparent Declination
Unknown
Sunlit
N/A
Visualization observer readout
Local Sidereal Time
17:00:29
Azimuth
Unknown
Elevation
Unknown
Doppler factor
Unknown
Orbital elements
Apogee altitude
824.832 km
Perigee altitude
669.557 km
Semi-major axis
7,125.332 km
Eccentricity
0.0109
Inclination
98.5907°
RAAN
148.9534°
Arg. of periapsis
210.8318°
True anomaly
149.28652°
Mean anomaly
148.6443°
Eccentric anomaly
148.96615°
Mean motion
3.60857 °/min
Orbital period
99.76 mins
BSTAR
0.0011895
Loading maneuver chart data...
Computing Atmospheric mass density...
Loading historical data...
Loading historical data...
Loading historical data...
Loading historical data...
Loading historical data...
Loading historical data...
Loading historical data...

Documentation

Showing up to 5 results
|